| time (UTC) | temp F | wind direction | speed knots | gust knots | rain 1hr in | rain 24hr in | rain mn in | humidity % | barometer mb |
| 20260503013518 | 41 | 198 | 0.0 | 0.0 | 0.00 | 0.00 | 0.00 | 59 | 1015.4 |
| 20260503013036 | 42 | 0 | 0.0 | 0.9 | 0.00 | 0.00 | 0.00 | 59 | 1015.5 |
| 20260503012514 | 42 | 0 | 0.0 | 0.9 | 0.00 | 0.00 | 0.00 | 57 | 1015.4 |
| 20260503012020 | 42 | 0 | 0.0 | 0.9 | 0.00 | 0.00 | 0.00 | 57 | 1015.4 |
| 20260503011531 | 42 | 0 | 0.0 | 0.9 | 0.00 | 0.00 | 0.00 | 58 | 1015.4 |
| 20260503011016 | 42 | 0 | 0.0 | 0.9 | 0.00 | 0.00 | 0.00 | 58 | 1015.5 |
| 20260503010515 | 43 | 0 | 0.0 | 0.9 | 0.00 | 0.00 | 0.00 | 57 | 1015.5 |
| 20260503010033 | 43 | 177 | 0.0 | 0.9 | 0.00 | 0.00 | 0.00 | 53 | 1015.4 |
| 20260503005516 | 44 | 0 | 0.0 | 0.0 | 0.00 | 0.00 | 0.00 | 53 | 1015.3 |
| 20260503005014 | 44 | 0 | 0.0 | 0.0 | 0.00 | 0.00 | 0.00 | 54 | 1015.3 |
| 20260503004530 | 45 | 0 | 0.0 | 0.0 | 0.00 | 0.00 | 0.00 | 48 | 1015.3 |
| 20260503004015 | 47 | 0 | 0.0 | 0.9 | 0.00 | 0.00 | 0.00 | 50 | 1015.3 |
| 20260503003515 | 48 | 0 | 0.0 | 0.9 | 0.00 | 0.00 | 0.00 | 55 | 1015.3 |
| 20260503003030 | 47 | 236 | 0.0 | 1.7 | 0.00 | 0.00 | 0.00 | 59 | 1015.3 |
| 20260503002517 | 47 | 233 | 0.0 | 1.7 | 0.00 | 0.00 | 0.00 | 54 | 1015.4 |
| 20260503002017 | 47 | 219 | 0.0 | 1.7 | 0.00 | 0.00 | 0.00 | 51 | 1015.4 |
| 20260503001534 | 47 | 223 | 0.0 | 1.7 | 0.00 | 0.00 | 0.00 | 53 | 1015.4 |
| 20260503001017 | 47 | 225 | 0.0 | 5.2 | 0.00 | 0.00 | 0.00 | 50 | 1015.4 |
| 20260503000514 | 47 | 240 | 0.9 | 5.2 | 0.00 | 0.00 | 0.00 | 48 | 1015.3 |
| 20260503000045 | 47 | 257 | 0.9 | 5.2 | 0.00 | 0.00 | 0.00 | 42 | 1015.4 |
| 20260502235517 | 47 | 0 | 0.0 | 2.6 | 0.00 | 0.00 | 0.00 | 41 | 1015.4 |
| 20260502235014 | 48 | 0 | 0.0 | 0.9 | 0.00 | 0.00 | 0.00 | 41 | 1015.4 |
| 20260502234532 | 48 | 0 | 0.0 | 0.9 | 0.00 | 0.00 | 0.00 | 40 | 1015.4 |
| 20260502234015 | 48 | 0 | 0.0 | 1.7 | 0.00 | 0.00 | 0.00 | 41 | 1015.4 |
| 20260502233518 | 48 | 0 | 0.0 | 1.7 | 0.00 | 0.00 | 0.00 | 41 | 1015.5 |
| 20260502233032 | 48 | 0 | 0.0 | 1.7 | 0.00 | 0.00 | 0.00 | 42 | 1015.5 |
| 20260502232518 | 48 | 0 | 0.0 | 1.7 | 0.00 | 0.00 | 0.00 | 41 | 1015.5 |
| 20260502232016 | 47 | 0 | 0.0 | 3.5 | 0.00 | 0.00 | 0.00 | 43 | 1015.4 |
| 20260502231532 | 46 | 283 | 0.9 | 3.5 | 0.00 | 0.00 | 0.00 | 43 | 1015.4 |
| 20260502231015 | 46 | 0 | 0.0 | 2.6 | 0.00 | 0.00 | 0.00 | 43 | 1015.6 |
| 20260502230514 | 46 | 275 | 0.9 | 2.6 | 0.00 | 0.00 | 0.00 | 44 | 1015.6 |
| 20260502230031 | 46 | 0 | 0.0 | 5.2 | 0.00 | 0.00 | 0.00 | 44 | 1015.6 |
| 20260502225517 | 46 | 0 | 0.0 | 5.2 | 0.00 | 0.00 | 0.00 | 44 | 1015.6 |
| 20260502225015 | 46 | 274 | 0.0 | 3.5 | 0.00 | 0.00 | 0.00 | 45 | 1015.7 |
| 20260502224534 | 46 | 304 | 0.0 | 3.5 | 0.00 | 0.00 | 0.00 | 44 | 1015.7 |
| 20260502224014 | 46 | 333 | 0.0 | 5.2 | 0.00 | 0.00 | 0.00 | 45 | 1015.6 |
| 20260502223520 | 46 | 255 | 1.7 | 6.1 | 0.00 | 0.00 | 0.00 | 43 | 1015.7 |
| 20260502223032 | 46 | 274 | 1.7 | 6.1 | 0.00 | 0.00 | 0.00 | 44 | 1015.7 |
| 20260502222515 | 46 | 255 | 1.7 | 5.2 | 0.00 | 0.00 | 0.00 | 44 | 1015.6 |
| 20260502222016 | 46 | 0 | 0.9 | 6.1 | 0.00 | 0.00 | 0.00 | 45 | 1015.7 |
| 20260502221534 | 46 | 249 | 1.7 | 7.0 | 0.00 | 0.00 | 0.00 | 44 | 1015.7 |
| 20260502221014 | 46 | 285 | 0.9 | 7.0 | 0.00 | 0.00 | 0.00 | 45 | 1015.7 |
| 20260502220517 | 46 | 309 | 2.6 | 7.8 | 0.00 | 0.00 | 0.00 | 44 | 1015.7 |
| 20260502220030 | 45 | 266 | 3.5 | 7.8 | 0.00 | 0.00 | 0.00 | 44 | 1015.7 |
| 20260502215516 | 46 | 273 | 1.7 | 7.8 | 0.00 | 0.00 | 0.00 | 44 | 1015.8 |
| 20260502215015 | 46 | 301 | 3.5 | 7.8 | 0.00 | 0.00 | 0.00 | 43 | 1015.8 |
| 20260502214531 | 46 | 283 | 1.7 | 8.7 | 0.00 | 0.00 | 0.00 | 44 | 1015.8 |
| 20260502214017 | 46 | 306 | 2.6 | 8.7 | 0.00 | 0.00 | 0.00 | 43 | 1015.8 |
| 20260502213516 | 46 | 293 | 2.6 | 6.1 | 0.00 | 0.00 | 0.00 | 42 | 1015.9 |
| 20260502213031 | 46 | 273 | 0.0 | 4.3 | 0.00 | 0.00 | 0.00 | 45 | 1015.8 |
| 20260502212516 | 45 | 257 | 0.9 | 7.8 | 0.00 | 0.00 | 0.00 | 45 | 1015.7 |
| 20260502212014 | 45 | 250 | 2.6 | 7.8 | 0.00 | 0.00 | 0.00 | 45 | 1015.8 |
| 20260502211530 | 46 | 293 | 1.7 | 5.2 | 0.00 | 0.00 | 0.00 | 45 | 1015.8 |
| 20260502211013 | 46 | 243 | 1.7 | 5.2 | 0.00 | 0.00 | 0.00 | 45 | 1015.8 |
| 20260502210516 | 46 | 269 | 1.7 | 7.0 | 0.00 | 0.00 | 0.00 | 45 | 1015.8 |
| 20260502210031 | 46 | 240 | 1.7 | 7.0 | 0.00 | 0.00 | 0.00 | 47 | 1015.8 |
| 20260502205516 | 45 | 236 | 1.7 | 8.7 | 0.00 | 0.00 | 0.00 | 50 | 1015.8 |
| 20260502205015 | 45 | 205 | 3.5 | 8.7 | 0.00 | 0.00 | 0.00 | 48 | 1015.8 |
| 20260502204532 | 46 | 247 | 0.9 | 6.1 | 0.00 | 0.00 | 0.00 | 48 | 1015.8 |
| 20260502204017 | 45 | 0 | 0.9 | 9.6 | 0.00 | 0.00 | 0.00 | 48 | 1015.9 |
| 20260502203516 | 45 | 303 | 4.3 | 9.6 | 0.00 | 0.00 | 0.00 | 46 | 1015.9 |
| 20260502203031 | 45 | 0 | 0.0 | 7.8 | 0.00 | 0.00 | 0.00 | 50 | 1015.9 |
| 20260502202515 | 45 | 259 | 1.7 | 7.8 | 0.00 | 0.00 | 0.00 | 46 | 1016.0 |
| 20260502202015 | 45 | 284 | 1.7 | 7.8 | 0.00 | 0.00 | 0.00 | 46 | 1016.0 |
| 20260502201535 | 45 | 271 | 2.6 | 7.8 | 0.00 | 0.00 | 0.00 | 47 | 1016.0 |
| 20260502201019 | 45 | 285 | 2.6 | 7.0 | 0.00 | 0.00 | 0.00 | 46 | 1016.0 |
| 20260502200514 | 46 | 263 | 2.6 | 9.6 | 0.00 | 0.00 | 0.00 | 47 | 1016.1 |
| 20260502200033 | 45 | 236 | 2.6 | 9.6 | 0.00 | 0.00 | 0.00 | 48 | 1016.2 |
| 20260502195516 | 45 | 302 | 3.5 | 8.7 | 0.00 | 0.00 | 0.00 | 47 | 1016.2 |
| 20260502195015 | 45 | 267 | 3.5 | 7.8 | 0.00 | 0.00 | 0.00 | 46 | 1016.3 |
| 20260502194530 | 45 | 249 | 1.7 | 9.6 | 0.00 | 0.00 | 0.00 | 45 | 1016.3 |
| 20260502194015 | 45 | 212 | 4.3 | 9.6 | 0.00 | 0.00 | 0.00 | 47 | 1016.4 |
| 20260502193517 | 46 | 335 | 3.5 | 12.2 | 0.00 | 0.00 | 0.00 | 46 | 1016.4 |
| 20260502193032 | 45 | 0 | 1.7 | 12.2 | 0.00 | 0.00 | 0.00 | 48 | 1016.5 |
| 20260502192516 | 45 | 214 | 4.3 | 10.4 | 0.00 | 0.00 | 0.00 | 49 | 1016.4 |
| 20260502192016 | 45 | 287 | 2.6 | 7.8 | 0.00 | 0.00 | 0.00 | 47 | 1016.6 |
| 20260502191538 | 45 | 272 | 1.7 | 7.8 | 0.00 | 0.00 | 0.00 | 46 | 1016.5 |
| 20260502191019 | 45 | 251 | 4.3 | 10.4 | 0.00 | 0.00 | 0.00 | 45 | 1016.6 |
| 20260502190516 | 45 | 223 | 3.5 | 10.4 | 0.00 | 0.00 | 0.00 | 47 | 1016.7 |
| 20260502190035 | 45 | 205 | 1.7 | 8.7 | 0.00 | 0.00 | 0.00 | 48 | 1016.7 |
| 20260502185516 | 45 | 283 | 4.3 | 8.7 | 0.00 | 0.00 | 0.00 | 47 | 1016.9 |
| 20260502185017 | 46 | 268 | 2.6 | 9.6 | 0.00 | 0.00 | 0.00 | 46 | 1016.8 |
| 20260502184531 | 46 | 294 | 1.7 | 9.6 | 0.00 | 0.00 | 0.00 | 45 | 1016.9 |
| 20260502184017 | 45 | 286 | 1.7 | 9.6 | 0.00 | 0.00 | 0.00 | 47 | 1016.9 |
| 20260502183515 | 44 | 0 | 2.6 | 9.6 | 0.00 | 0.00 | 0.00 | 48 | 1016.9 |
| 20260502183031 | 44 | 274 | 2.6 | 9.6 | 0.00 | 0.00 | 0.00 | 47 | 1017.0 |
| 20260502182515 | 44 | 273 | 3.5 | 7.8 | 0.00 | 0.00 | 0.00 | 47 | 1017.0 |
| 20260502182016 | 44 | 269 | 2.6 | 8.7 | 0.00 | 0.00 | 0.00 | 48 | 1017.0 |
| 20260502181532 | 45 | 313 | 3.5 | 8.7 | 0.00 | 0.00 | 0.00 | 46 | 1017.1 |
| 20260502181016 | 44 | 246 | 2.6 | 7.0 | 0.00 | 0.00 | 0.00 | 47 | 1017.1 |
| 20260502180516 | 44 | 258 | 2.6 | 7.8 | 0.00 | 0.00 | 0.00 | 48 | 1017.2 |
| 20260502164014 | 44 | 293 | 1.7 | 9.6 | 0.00 | 0.00 | 0.00 | 48 | 1017.3 |
| 20260502163515 | 44 | 241 | 3.5 | 9.6 | 0.00 | 0.00 | 0.00 | 46 | 1017.4 |
| 20260502163040 | 44 | 310 | 1.7 | 7.0 | 0.00 | 0.00 | 0.00 | 47 | 1017.4 |
| 20260502162516 | 44 | 233 | 2.6 | 7.0 | 0.00 | 0.00 | 0.00 | 47 | 1017.5 |
| 20260502162013 | 43 | 76 | 2.6 | 7.0 | 0.00 | 0.00 | 0.00 | 49 | 1017.4 |
| 20260502161554 | 43 | 300 | 1.7 | 9.6 | 0.00 | 0.00 | 0.00 | 50 | 1017.5 |
| 20260502161021 | 42 | 255 | 1.7 | 9.6 | 0.00 | 0.00 | 0.00 | 49 | 1017.5 |
| 20260502160516 | 42 | 331 | 3.5 | 10.4 | 0.00 | 0.00 | 0.00 | 48 | 1017.6 |
| 20260502152014 | 41 | 304 | 3.5 | 11.3 | 0.00 | 0.00 | 0.00 | 50 | 1017.4 |
| 20260502151534 | 41 | 311 | 2.6 | 11.3 | 0.00 | 0.00 | 0.00 | 53 | 1017.4 |
| 20260502151015 | 41 | 299 | 5.2 | 11.3 | 0.00 | 0.00 | 0.00 | 53 | 1017.5 |
| 20260502150514 | 41 | 311 | 3.5 | 7.8 | 0.00 | 0.00 | 0.00 | 54 | 1017.4 |
| 20260502130739 | 39 | 321 | 2.6 | 7.8 | 0.00 | 0.00 | 0.00 | 71 | 1017.6 |
| 20260502123515 | 38 | 309 | 2.6 | 6.1 | 0.00 | 0.00 | 0.00 | 75 | 1017.4 |
| 20260502123058 | 38 | 353 | 2.6 | 7.0 | 0.00 | 0.00 | 0.00 | 75 | 1017.4 |
| 20260502122512 | 37 | 20 | 1.7 | 7.0 | 0.00 | 0.00 | 0.00 | 76 | 1017.5 |
| 20260502122020 | 37 | 307 | 1.7 | 7.0 | 0.00 | 0.00 | 0.00 | 77 | 1017.5 |
| 20260502121529 | 37 | 0 | 0.9 | 5.2 | 0.00 | 0.00 | 0.00 | 79 | 1017.4 |
| 20260502121014 | 37 | 332 | 0.9 | 5.2 | 0.00 | 0.00 | 0.00 | 82 | 1017.4 |
| 20260502120518 | 36 | 0 | 1.7 | 5.2 | 0.00 | 0.00 | 0.00 | 82 | 1017.4 |
| 20260502115518 | 36 | 0 | 0.0 | 3.5 | 0.00 | 0.00 | 0.00 | 87 | 1017.3 |
| 20260502115018 | 35 | 304 | 0.9 | 3.5 | 0.00 | 0.00 | 0.00 | 87 | 1017.3 |
| 20260502114530 | 35 | 0 | 0.0 | 2.6 | 0.00 | 0.00 | 0.00 | 89 | 1017.3 |
| 20260502114014 | 35 | 0 | 0.0 | 1.7 | 0.00 | 0.00 | 0.00 | 89 | 1017.2 |
| 20260502113514 | 35 | 0 | 0.0 | 1.7 | 0.00 | 0.00 | 0.00 | 90 | 1017.2 |
| 20260502113028 | 34 | 0 | 0.0 | 0.0 | 0.00 | 0.00 | 0.00 | 91 | 1017.1 |
| 20260502112510 | 34 | 0 | 0.0 | 0.0 | 0.00 | 0.00 | 0.00 | 92 | 1017.2 |
| 20260502112013 | 34 | 0 | 0.0 | 0.0 | 0.00 | 0.00 | 0.00 | 92 | 1017.1 |
| 20260502111533 | 35 | 0 | 0.0 | 0.0 | 0.00 | 0.00 | 0.00 | 93 | 1017.1 |
| 20260502111013 | 36 | 0 | 0.0 | 0.0 | 0.00 | 0.00 | 0.00 | 94 | 1017.2 |
| 20260502110514 | 37 | 0 | 0.0 | 0.0 | 0.00 | 0.00 | 0.00 | 94 | 1017.2 |
| 20260502110040 | 37 | 0 | 0.0 | 0.0 | 0.00 | 0.00 | 0.00 | 94 | 1017.2 |
| 20260502105514 | 36 | 0 | 0.0 | 0.0 | 0.00 | 0.00 | 0.00 | 94 | 1017.2 |
| 20260502105014 | 35 | 0 | 0.0 | 0.0 | 0.00 | 0.00 | 0.00 | 93 | 1017.1 |
| 20260502104529 | 34 | 0 | 0.0 | 0.0 | 0.00 | 0.00 | 0.00 | 92 | 1017.1 |
| 20260502104014 | 34 | 0 | 0.0 | 0.0 | 0.00 | 0.00 | 0.00 | 91 | 1017.2 |
| 20260502103514 | 34 | 0 | 0.0 | 0.0 | 0.00 | 0.00 | 0.00 | 91 | 1017.1 |
| 20260502103032 | 34 | 0 | 0.0 | 0.0 | 0.00 | 0.00 | 0.00 | 91 | 1017.0 |
| 20260502102514 | 34 | 0 | 0.0 | 0.0 | 0.00 | 0.00 | 0.00 | 90 | 1017.0 |
| 20260502102026 | 34 | 0 | 0.0 | 0.0 | 0.00 | 0.00 | 0.00 | 90 | 1017.0 |
| 20260502101532 | 34 | 0 | 0.0 | 0.0 | 0.00 | 0.00 | 0.00 | 89 | 1016.8 |
| 20260502101015 | 34 | 0 | 0.0 | 0.0 | 0.00 | 0.00 | 0.00 | 89 | 1016.7 |
| 20260502100513 | 34 | 0 | 0.0 | 0.0 | 0.00 | 0.00 | 0.00 | 89 | 1016.7 |
| 20260502091530 | 35 | 0 | 0.0 | 0.0 | 0.00 | 0.00 | 0.00 | 85 | 1016.7 |
| 20260502091017 | 35 | 0 | 0.0 | 0.0 | 0.00 | 0.00 | 0.00 | 84 | 1016.6 |
| 20260502090513 | 35 | 0 | 0.0 | 0.0 | 0.00 | 0.00 | 0.00 | 84 | 1016.6 |
| 20260502071533 | 35 | 0 | 0.0 | 0.0 | 0.00 | 0.00 | 0.00 | 80 | 1016.2 |
| 20260502071017 | 35 | 0 | 0.0 | 0.0 | 0.00 | 0.00 | 0.00 | 80 | 1016.2 |
| 20260502070521 | 35 | 0 | 0.0 | 0.0 | 0.00 | 0.00 | 0.00 | 80 | 1016.3 |
| 20260502070032 | 35 | 0 | 0.0 | 0.0 | 0.00 | 0.00 | 0.00 | 80 | 1016.3 |
| 20260502065516 | 35 | 0 | 0.0 | 0.0 | 0.00 | 0.00 | 0.00 | 79 | 1016.3 |
| 20260502065016 | 35 | 0 | 0.0 | 0.0 | 0.00 | 0.00 | 0.00 | 79 | 1016.5 |
| 20260502064535 | 35 | 0 | 0.0 | 0.0 | 0.00 | 0.00 | 0.00 | 80 | 1016.4 |
| 20260502064017 | 35 | 0 | 0.0 | 0.0 | 0.00 | 0.00 | 0.00 | 79 | 1016.5 |
| 20260502063514 | 36 | 0 | 0.0 | 0.0 | 0.00 | 0.00 | 0.00 | 80 | 1016.6 |
| 20260502063044 | 36 | 0 | 0.0 | 0.0 | 0.00 | 0.00 | 0.00 | 81 | 1016.7 |
| 20260502062516 | 36 | 0 | 0.0 | 0.0 | 0.00 | 0.00 | 0.00 | 80 | 1016.6 |
| 20260502062013 | 36 | 0 | 0.0 | 0.0 | 0.00 | 0.00 | 0.00 | 80 | 1016.8 |
| 20260502061530 | 36 | 0 | 0.0 | 0.0 | 0.00 | 0.00 | 0.00 | 79 | 1016.8 |
| 20260502061016 | 36 | 0 | 0.0 | 0.0 | 0.00 | 0.00 | 0.00 | 79 | 1016.8 |
| 20260502060515 | 36 | 0 | 0.0 | 0.0 | 0.00 | 0.00 | 0.00 | 78 | 1016.9 |
| 20260502060032 | 36 | 0 | 0.0 | 0.0 | 0.00 | 0.00 | 0.00 | 79 | 1017.0 |
| 20260502055515 | 36 | 0 | 0.0 | 0.0 | 0.00 | 0.00 | 0.00 | 78 | 1016.9 |
| 20260502055017 | 36 | 0 | 0.0 | 0.0 | 0.00 | 0.00 | 0.00 | 79 | 1017.0 |
| 20260502054530 | 36 | 0 | 0.0 | 0.0 | 0.00 | 0.00 | 0.00 | 78 | 1017.0 |
| 20260502054016 | 36 | 0 | 0.0 | 0.0 | 0.00 | 0.00 | 0.00 | 79 | 1017.1 |
| 20260502053516 | 36 | 0 | 0.0 | 0.9 | 0.00 | 0.00 | 0.00 | 79 | 1017.0 |
| 20260502053029 | 36 | 0 | 0.0 | 0.9 | 0.00 | 0.00 | 0.00 | 79 | 1017.1 |
| 20260502052514 | 36 | 0 | 0.0 | 0.0 | 0.00 | 0.00 | 0.00 | 80 | 1017.0 |
| 20260502052014 | 36 | 0 | 0.0 | 0.0 | 0.00 | 0.00 | 0.00 | 81 | 1017.0 |
| 20260502051535 | 36 | 0 | 0.0 | 0.9 | 0.00 | 0.00 | 0.00 | 81 | 1017.0 |
| 20260502051014 | 36 | 0 | 0.0 | 0.9 | 0.00 | 0.00 | 0.00 | 80 | 1016.9 |
| 20260502050514 | 36 | 0 | 0.0 | 0.0 | 0.00 | 0.00 | 0.00 | 80 | 1016.9 |
| 20260502050035 | 36 | 0 | 0.0 | 1.7 | 0.00 | 0.00 | 0.00 | 79 | 1016.8 |
| 20260502045517 | 37 | 0 | 0.0 | 1.7 | 0.00 | 0.00 | 0.00 | 81 | 1016.8 |
| 20260502045015 | 37 | 0 | 0.0 | 1.7 | 0.00 | 0.00 | 0.00 | 82 | 1016.8 |
| 20260502044532 | 37 | 0 | 0.0 | 1.7 | 0.00 | 0.00 | 0.00 | 81 | 1016.7 |
| 20260502044014 | 37 | 0 | 0.0 | 0.9 | 0.00 | 0.00 | 0.00 | 80 | 1016.6 |
| 20260502043516 | 37 | 0 | 0.0 | 1.7 | 0.00 | 0.00 | 0.00 | 80 | 1016.6 |
| 20260502043034 | 37 | 0 | 0.0 | 1.7 | 0.00 | 0.00 | 0.00 | 79 | 1016.6 |
| 20260502042515 | 37 | 0 | 0.0 | 1.7 | 0.00 | 0.00 | 0.00 | 80 | 1016.5 |
| 20260502042015 | 37 | 0 | 0.0 | 1.7 | 0.00 | 0.00 | 0.00 | 79 | 1016.5 |
| 20260502041531 | 37 | 0 | 0.0 | 1.7 | 0.00 | 0.00 | 0.00 | 79 | 1016.6 |
| 20260502041016 | 37 | 0 | 0.0 | 1.7 | 0.00 | 0.00 | 0.00 | 79 | 1016.5 |
| 20260502040514 | 37 | 0 | 0.0 | 1.7 | 0.00 | 0.00 | 0.00 | 78 | 1016.5 |
| 20260502040033 | 37 | 0 | 0.0 | 1.7 | 0.00 | 0.00 | 0.00 | 78 | 1016.5 |
| 20260502035516 | 37 | 0 | 0.0 | 1.7 | 0.00 | 0.00 | 0.00 | 78 | 1016.5 |
| 20260502035014 | 38 | 0 | 0.0 | 1.7 | 0.00 | 0.00 | 0.00 | 78 | 1016.5 |
| 20260502034530 | 38 | 0 | 0.0 | 0.0 | 0.00 | 0.00 | 0.00 | 78 | 1016.4 |
| 20260502034015 | 38 | 0 | 0.0 | 0.0 | 0.00 | 0.00 | 0.00 | 77 | 1016.4 |
| 20260502033514 | 38 | 0 | 0.0 | 0.0 | 0.00 | 0.00 | 0.00 | 77 | 1016.4 |
| 20260502033035 | 38 | 0 | 0.0 | 0.0 | 0.00 | 0.00 | 0.00 | 77 | 1016.4 |
| 20260502032514 | 38 | 0 | 0.0 | 0.9 | 0.00 | 0.00 | 0.00 | 77 | 1016.4 |
| 20260502032012 | 38 | 0 | 0.0 | 0.9 | 0.00 | 0.00 | 0.00 | 77 | 1016.3 |
| 20260502031529 | 38 | 94 | 0.0 | 0.0 | 0.00 | 0.00 | 0.00 | 77 | 1016.3 |
| 20260502031014 | 38 | 0 | 0.0 | 1.7 | 0.00 | 0.00 | 0.00 | 77 | 1016.2 |
| 20260502030514 | 38 | 0 | 0.0 | 1.7 | 0.00 | 0.00 | 0.00 | 77 | 1016.2 |
| 20260502030032 | 38 | 63 | 0.0 | 1.7 | 0.00 | 0.00 | 0.00 | 77 | 1016.2 |
| 20260502025514 | 38 | 0 | 0.0 | 1.7 | 0.00 | 0.00 | 0.00 | 77 | 1016.2 |
| 20260502025014 | 38 | 0 | 0.0 | 3.5 | 0.00 | 0.00 | 0.00 | 76 | 1016.2 |
| 20260502024528 | 38 | 0 | 0.0 | 3.5 | 0.00 | 0.00 | 0.00 | 76 | 1016.2 |
| 20260502024011 | 38 | 0 | 0.0 | 3.5 | 0.00 | 0.00 | 0.00 | 76 | 1016.1 |
| 20260502023515 | 38 | 0 | 0.0 | 3.5 | 0.00 | 0.00 | 0.00 | 76 | 1016.1 |
| 20260502023032 | 38 | 0 | 0.0 | 3.5 | 0.00 | 0.00 | 0.00 | 77 | 1016.2 |
| 20260502022516 | 38 | 0 | 0.0 | 3.5 | 0.00 | 0.00 | 0.00 | 76 | 1016.1 |
| 20260502022014 | 38 | 0 | 0.0 | 5.2 | 0.00 | 0.00 | 0.00 | 76 | 1016.1 |
| 20260502021529 | 38 | 53 | 0.0 | 5.2 | 0.00 | 0.00 | 0.00 | 76 | 1016.0 |
| 20260502021014 | 39 | 58 | 0.9 | 4.3 | 0.00 | 0.00 | 0.00 | 75 | 1016.1 |
| 20260502020512 | 39 | 36 | 0.0 | 6.1 | 0.00 | 0.00 | 0.00 | 75 | 1016.2 |
| 20260502020029 | 39 | 34 | 1.7 | 6.1 | 0.00 | 0.00 | 0.00 | 74 | 1016.0 |
| 20260502015512 | 39 | 65 | 1.7 | 8.7 | 0.00 | 0.00 | 0.00 | 74 | 1016.0 |
| 20260502015014 | 39 | 16 | 1.7 | 8.7 | 0.00 | 0.00 | 0.00 | 74 | 1015.9 |
| 20260502014533 | 39 | 351 | 4.3 | 11.3 | 0.00 | 0.00 | 0.00 | 73 | 1016.0 |
| 20260502014014 | 39 | 32 | 4.3 | 11.3 | 0.00 | 0.00 | 0.00 | 73 | 1016.0 |